User: anonymous   Login
Location: Caltech
(34.1382°N, 118.1253°W)
Time: 07:55:03
(UTC-08:00)
Language:

Cosmos 1484 Rocket - Orbit

View from above orbital plane
View from above orbital plane
View from above satellite
View from above satellite

Ground track
Ground track

The orbit data is extracted from the following two-line orbital elements,

1 14208U 83075B   18050.92425285 +.00000190 +00000-0 +15100-4 0  9990
2 14208 097.3425 056.3403 0039156 358.7062 001.4061 15.10623917884606
Epoch (UTC): 19 February 2018 22:10:55
Eccentricity: 0.0039156
inclination: 97.3425°
perigee height: 507 km
apogee height: 561 km
right ascension of ascending node: 56.3403°
argument of perigee: 358.7062°
revolutions per day: 15.10623917
mean anomaly at epoch: 1.4061°
orbit number at epoch: 88460

The dashed part of the orbit path shows where the satellite is in the earth's shadow,  

DLR